Weather History for Larissa, Greece

Change the Weather History Date:

Wednesday, November 20, 2013

  Actual Average Record
Temperature  
Mean Temperature 55 °F -  
Max Temperature 64 °F 55 °F - ()
Min Temperature 46 °F 37 °F - ()
Degree Days  
Heating Degree Days 10    
Growing Degree Days 5 (Base 50)    
Moisture  
Dew Point 51 °F    
Average Humidity 89    
Maximum Humidity 100    
Minimum Humidity 58    
Precipitation  
Precipitation 0.00 in 0.07 in - ()
Sea Level Pressure  
Sea Level Pressure 29.92 in    
Wind  
Wind Speed 0 mph ()    
Max Wind Speed 5 mph    
Max Gust Speed -    
Visibility 4.2 miles    
Events Fog , Rain    
T = Trace of Precipitation, MM = Missing Value Source: Averaged Metar Reports

Daily Weather History Graph

Daily Weather History Graph

Search for Another Location

Airport:

Trip Planner

Search our weather history database for the weather conditions in past years. The results will help you decide how hot, cold, wet, or windy it might be!

Date:

Astronomy

Nov. 20, 2013 Rise Set
Actual Time 7:20 AM EET 5:11 PM EET
Civil Twilight 6:51 AM EET 5:40 PM EET
Nautical Twilight 6:18 AM EET 6:13 PM EET
Astronomical Twilight 5:46 AM EET 6:45 PM EET
Moon 7:37 PM EET (11/20) 9:31 AM EET (11/20)
Length of Visible Light 10h 49m
Length of Day
9h 51m
Waning Gibbous, 93% of the Moon is Illuminated
Nov 20
Waning Gibbous
Nov 25
Last Quarter
Dec 3
New
Dec 9
First Quarter
Dec 17
Full

Hourly Weather History & Observations

Time (EET) Temp. Dew Point Humidity Pressure Visibility Wind Dir Wind Speed Gust Speed Precip Events Conditions
12:50 AM 53.6 °F 50.0 °F 88% 30.01 in 5.0 mi Calm Calm - N/A   Mostly Cloudy
1:50 AM 53.6 °F 50.0 °F 88% 30.01 in 5.0 mi Calm Calm - N/A Rain Light Rain
2:00 AM 54 °F 50 °F 81% 30.03 in 5 mi Calm Calm - - Rain Light Rain
2:50 AM 51.8 °F 51.8 °F 100% 30.01 in 5.0 mi Calm Calm - N/A Rain Light Rain
3:50 AM 51.8 °F 51.8 °F 100% 29.98 in 5.0 mi Calm Calm - N/A   Mostly Cloudy
4:50 AM 50.0 °F 48.2 °F 94% 29.98 in 3.7 mi Calm Calm - N/A   Scattered Clouds
5:50 AM 48.2 °F 46.4 °F 93% 29.95 in 0.6 mi Calm Calm - N/A   Partly Cloudy
6:50 AM 46.4 °F 46.4 °F 100% 29.95 in 0.1 mi Calm Calm - N/A Fog Fog
7:50 AM 48.2 °F 48.2 °F 100% 29.95 in 1.1 mi Calm Calm - N/A   Mostly Cloudy
8:00 AM 49 °F 49 °F 98% 29.97 in 1 mi Calm Calm - -   Mist
9:50 AM 53.6 °F 53.6 °F 100% 29.95 in 2.2 mi Calm Calm - N/A   Mostly Cloudy
10:50 AM 55.4 °F 55.4 °F 100% 29.95 in 2.2 mi Calm Calm - N/A   Mostly Cloudy
11:50 AM 59.0 °F 55.4 °F 88% 29.92 in 2.5 mi Calm Calm - N/A   Mostly Cloudy
12:50 PM 62.6 °F 53.6 °F 72% 29.92 in 3.7 mi WNW 4.6 mph - N/A   Mostly Cloudy
1:50 PM 62.6 °F 51.8 °F 68% 29.89 in 5.0 mi Calm Calm - N/A   Scattered Clouds
2:00 PM 62 °F 51 °F 58% 29.91 in 5 mi Calm Calm - -   Mist
2:50 PM 64.4 °F 51.8 °F 64% 29.86 in 6.2 mi Calm Calm - N/A   Scattered Clouds
3:50 PM 62.6 °F 51.8 °F 68% 29.89 in 6.2 mi Calm Calm - N/A   Drizzle
4:50 PM 60.8 °F 51.8 °F 72% 29.86 in 6.2 mi Calm Calm - N/A   Scattered Clouds
5:50 PM 57.2 °F 53.6 °F 88% 29.86 in 6.2 mi Calm Calm - N/A   Scattered Clouds
6:50 PM 53.6 °F 53.6 °F 100% 29.86 in 6.2 mi Calm Calm - N/A   Scattered Clouds
7:50 PM 53.6 °F 51.8 °F 94% 29.86 in 6.2 mi Calm Calm - N/A   Scattered Clouds
8:00 PM 53 °F 52 °F 94% 29.88 in 6 mi Calm Calm - -   Partly Cloudy
8:50 PM 53.6 °F 53.6 °F 100% 29.86 in 6.2 mi Calm Calm - N/A   Partly Cloudy
9:50 PM 53.6 °F 51.8 °F 94% 29.86 in 6.2 mi Calm Calm - N/A   Scattered Clouds
10:50 PM 51.8 °F 51.8 °F 100% 29.86 in 5.0 mi Calm Calm - N/A   Partly Cloudy
11:50 PM 48.2 °F 48.2 °F 100% 29.86 in 1.9 mi Calm Calm - N/A   Partly Cloudy